| time (UTC) | temp F | wind direction | speed MPH | gust MPH | rain 1hr in | rain 24hr in | rain mn in | humidity % | barometer mb |
| 20260509003955 | 99 | 0 | 4.0 | 11.0 | 0.00 | 0.00 | 0.00 | ||
| 20260509003500 | 99 | 0 | 3.0 | 11.0 | 0.00 | 0.00 | 0.00 | ||
| 20260509003000 | 99 | 358 | 5.0 | 15.0 | 0.00 | 0.00 | 0.00 | ||
| 20260509002459 | 99 | 0 | 5.0 | 15.0 | 0.00 | 0.00 | 0.00 | ||
| 20260509002004 | 99 | 0 | 5.0 | 10.0 | 0.00 | 0.00 | 0.00 | ||
| 20260509001527 | 99 | 0 | 3.0 | 10.0 | 0.00 | 0.00 | 0.00 | ||
| 20260509000958 | 100 | 355 | 5.0 | 8.0 | 0.00 | 0.00 | 0.00 | ||
| 20260509000500 | 100 | 0 | 2.0 | 13.0 | 0.00 | 0.00 | 0.00 | ||
| 20260508235959 | 100 | 357 | 6.0 | 13.0 | 0.00 | 0.00 | 0.00 | ||
| 20260508235003 | 100 | 0 | 4.0 | 9.0 | 0.00 | 0.00 | 0.00 | ||
| 20260508234524 | 100 | 339 | 5.0 | 7.0 | 0.00 | 0.00 | 0.00 | ||
| 20260508233516 | 100 | 0 | 1.0 | 5.0 | 0.00 | 0.00 | 0.00 | ||
| 20260508233018 | 100 | 0 | 3.0 | 7.0 | 0.00 | 0.00 | 0.00 | ||
| 20260508232517 | 100 | 0 | 1.0 | 12.0 | 0.00 | 0.00 | 0.00 | ||
| 20260508231511 | 100 | 357 | 3.0 | 13.0 | 0.00 | 0.00 | 0.00 | ||
| 20260508231015 | 100 | 353 | 2.0 | 9.0 | 0.00 | 0.00 | 0.00 | ||
| 20260508230514 | 100 | 357 | 4.0 | 10.0 | 0.00 | 0.00 | 0.00 | ||
| 20260508230000 | 100 | 0 | 5.0 | 10.0 | 0.00 | 0.00 | 0.00 | ||
| 20260508225459 | 100 | 0 | 4.0 | 14.0 | 0.00 | 0.00 | 0.00 | ||
| 20260508225021 | 100 | 357 | 4.0 | 14.0 | 0.00 | 0.00 | 0.00 | ||
| 20260508224511 | 100 | 339 | 8.0 | 13.0 | 0.00 | 0.00 | 0.00 | ||
| 20260508224010 | 100 | 343 | 4.0 | 9.0 | 0.00 | 0.00 | 0.00 | ||
| 20260508223009 | 100 | 336 | 4.0 | 8.0 | 0.00 | 0.00 | 0.00 | ||
| 20260508221514 | 100 | 0 | 4.0 | 9.0 | 0.00 | 0.00 | 0.00 | ||
| 20260508221013 | 100 | 0 | 1.0 | 6.0 | 0.00 | 0.00 | 0.00 | ||
| 20260508220513 | 100 | 357 | 2.0 | 9.0 | 0.00 | 0.00 | 0.00 | ||
| 20260508220014 | 100 | 358 | 4.0 | 9.0 | 0.00 | 0.00 | 0.00 | ||
| 20260508215515 | 100 | 0 | 2.0 | 16.0 | 0.00 | 0.00 | 0.00 | ||
| 20260508215016 | 100 | 356 | 4.0 | 16.0 | 0.00 | 0.00 | 0.00 | ||
| 20260508214508 | 100 | 352 | 4.0 | 12.0 | 0.00 | 0.00 | 0.00 | ||
| 20260508214007 | 100 | 358 | 4.0 | 11.0 | 0.00 | 0.00 | 0.00 | ||
| 20260508213513 | 100 | 0 | 1.0 | 8.0 | 0.00 | 0.00 | 0.00 | ||
| 20260508213015 | 100 | 0 | 2.0 | 9.0 | 0.00 | 0.00 | 0.00 | ||
| 20260508212516 | 100 | 0 | 0.0 | 15.0 | 0.00 | 0.00 | 0.00 | ||
| 20260508212018 | 101 | 359 | 4.0 | 21.0 | 0.00 | 0.00 | 0.00 | ||
| 20260508211015 | 100 | 359 | 1.0 | 9.0 | 0.00 | 0.00 | 0.00 | ||
| 20260508210515 | 100 | 0 | 2.0 | 7.0 | 0.00 | 0.00 | 0.00 | ||
| 20260508210017 | 100 | 359 | 1.0 | 10.0 | 0.00 | 0.00 | 0.00 | ||
| 20260508205019 | 100 | 359 | 7.0 | 11.0 | 0.00 | 0.00 | 0.00 | ||
| 20260508204512 | 100 | 0 | 5.0 | 12.0 | 0.00 | 0.00 | 0.00 | ||
| 20260508204011 | 100 | 0 | 6.0 | 16.0 | 0.00 | 0.00 | 0.00 | ||
| 20260508203018 | 99 | 0 | 5.0 | 15.0 | 0.00 | 0.00 | 0.00 | ||
| 20260508202518 | 100 | 0 | 3.0 | 7.0 | 0.00 | 0.00 | 0.00 | ||
| 20260508202019 | 100 | 0 | 3.0 | 10.0 | 0.00 | 0.00 | 0.00 | ||
| 20260508201513 | 100 | 0 | 4.0 | 10.0 | 0.00 | 0.00 | 0.00 | ||
| 20260508201012 | 99 | 357 | 4.0 | 8.0 | 0.00 | 0.00 | 0.00 | ||
| 20260508200017 | 99 | 0 | 3.0 | 9.0 | 0.00 | 0.00 | 0.00 | ||
| 20260508195458 | 99 | 353 | 3.0 | 9.0 | 0.00 | 0.00 | 0.00 | ||
| 20260508194512 | 98 | 308 | 0.0 | 7.0 | 0.00 | 0.00 | 0.00 | ||
| 20260508194012 | 98 | 343 | 3.0 | 10.0 | 0.00 | 0.00 | 0.00 | ||
| 20260508193513 | 98 | 17 | 1.0 | 10.0 | 0.00 | 0.00 | 0.00 | ||
| 20260508193015 | 98 | 344 | 3.0 | 8.0 | 0.00 | 0.00 | 0.00 | ||
| 20260508192515 | 98 | 296 | 2.0 | 8.0 | 0.00 | 0.00 | 0.00 | ||
| 20260508192016 | 98 | 315 | 5.0 | 9.0 | 0.00 | 0.00 | 0.00 | ||
| 20260508191507 | 97 | 359 | 3.0 | 9.0 | 0.00 | 0.00 | 0.00 | ||
| 20260508191008 | 97 | 357 | 1.0 | 7.0 | 0.00 | 0.00 | 0.00 | ||
| 20260508190012 | 96 | 0 | 3.0 | 7.0 | 0.00 | 0.00 | 0.00 | ||
| 20260508185458 | 96 | 358 | 3.0 | 7.0 | 0.00 | 0.00 | 0.00 | ||
| 20260508185001 | 96 | 315 | 3.0 | 7.0 | 0.00 | 0.00 | 0.00 | ||
| 20260508184525 | 95 | 314 | 2.0 | 9.0 | 0.00 | 0.00 | 0.00 | ||
| 20260508184016 | 95 | 0 | 2.0 | 9.0 | 0.00 | 0.00 | 0.00 | ||
| 20260508182959 | 94 | 177 | 0.0 | 5.0 | 0.00 | 0.00 | 0.00 | ||
| 20260508182500 | 94 | 0 | 2.0 | 6.0 | 0.00 | 0.00 | 0.00 | ||
| 20260508182000 | 93 | 0 | 2.0 | 6.0 | 0.00 | 0.00 | 0.00 | ||
| 20260508181012 | 93 | 357 | 2.0 | 6.0 | 0.00 | 0.00 | 0.00 | ||
| 20260508180512 | 92 | 105 | 3.0 | 9.0 | 0.00 | 0.00 | 0.00 | ||
| 20260508180016 | 92 | 338 | 2.0 | 9.0 | 0.00 | 0.00 | 0.00 | ||
| 20260508175457 | 92 | 349 | 3.0 | 7.0 | 0.00 | 0.00 | 0.00 | ||
| 20260508175021 | 91 | 47 | 3.0 | 7.0 | 0.00 | 0.00 | 0.00 | ||
| 20260508174511 | 91 | 279 | 4.0 | 8.0 | 0.00 | 0.00 | 0.00 | ||
| 20260508173457 | 90 | 356 | 4.0 | 8.0 | 0.00 | 0.00 | 0.00 | ||
| 20260508173001 | 90 | 356 | 2.0 | 8.0 | 0.00 | 0.00 | 0.00 | ||
| 20260508172502 | 89 | 341 | 2.0 | 7.0 | 0.00 | 0.00 | 0.00 | ||
| 20260508172024 | 89 | 0 | 2.0 | 8.0 | 0.00 | 0.00 | 0.00 | ||
| 20260508171515 | 88 | 14 | 3.0 | 8.0 | 0.00 | 0.00 | 0.00 | ||
| 20260508171013 | 88 | 43 | 3.0 | 7.0 | 0.00 | 0.00 | 0.00 | ||
| 20260508165959 | 87 | 315 | 1.0 | 6.0 | 0.00 | 0.00 | 0.00 | ||
| 20260508165500 | 87 | 350 | 3.0 | 6.0 | 0.00 | 0.00 | 0.00 | ||
| 20260508165002 | 86 | 17 | 3.0 | 6.0 | 0.00 | 0.00 | 0.00 | ||
| 20260508164524 | 86 | 238 | 2.0 | 6.0 | 0.00 | 0.00 | 0.00 | ||
| 20260508163516 | 85 | 0 | 2.0 | 6.0 | 0.00 | 0.00 | 0.00 | ||
| 20260508163017 | 85 | 358 | 3.0 | 8.0 | 0.00 | 0.00 | 0.00 | ||
| 20260508162503 | 84 | 324 | 5.0 | 8.0 | 0.00 | 0.00 | 0.00 | ||
| 20260508161528 | 84 | 0 | 1.0 | 5.0 | 0.00 | 0.00 | 0.00 | ||
| 20260508161017 | 83 | 19 | 1.0 | 6.0 | 0.00 | 0.00 | 0.00 | ||
| 20260508160500 | 83 | 7 | 4.0 | 6.0 | 0.00 | 0.00 | 0.00 | ||
| 20260508160001 | 82 | 131 | 1.0 | 3.0 | 0.00 | 0.00 | 0.00 | ||
| 20260508155500 | 82 | 213 | 2.0 | 3.0 | 0.00 | 0.00 | 0.00 | ||
| 20260508155001 | 81 | 149 | 0.0 | 2.0 | 0.00 | 0.00 | 0.00 | ||
| 20260508154521 | 81 | 217 | 0.0 | 1.0 | 0.00 | 0.00 | 0.00 | ||
| 20260508154012 | 80 | 199 | 0.0 | 2.0 | 0.00 | 0.00 | 0.00 | ||
| 20260508153511 | 80 | 0 | 0.0 | 3.0 | 0.00 | 0.00 | 0.00 | ||
| 20260508153013 | 79 | 0 | 1.0 | 3.0 | 0.00 | 0.00 | 0.00 | ||
| 20260508152514 | 79 | 40 | 0.0 | 3.0 | 0.00 | 0.00 | 0.00 | ||
| 20260508152012 | 79 | 336 | 0.0 | 3.0 | 0.00 | 0.00 | 0.00 | ||
| 20260508151503 | 78 | 93 | 0.0 | 2.0 | 0.00 | 0.00 | 0.00 | ||
| 20260508151006 | 78 | 43 | 0.0 | 2.0 | 0.00 | 0.00 | 0.00 | ||
| 20260508150508 | 77 | 155 | 0.0 | 2.0 | 0.00 | 0.00 | 0.00 | ||
| 20260508150008 | 77 | 150 | 0.0 | 2.0 | 0.00 | 0.00 | 0.00 | ||
| 20260508145510 | 77 | 136 | 0.0 | 3.0 | 0.00 | 0.00 | 0.00 | ||
| 20260508145011 | 76 | 295 | 1.0 | 3.0 | 0.00 | 0.00 | 0.00 | ||
| 20260508144502 | 76 | 123 | 0.0 | 2.0 | 0.00 | 0.00 | 0.00 | ||
| 20260508144003 | 75 | 133 | 0.0 | 2.0 | 0.00 | 0.00 | 0.00 | ||
| 20260508143503 | 75 | 33 | 0.0 | 0.0 | 0.00 | 0.00 | 0.00 | ||
| 20260508143004 | 75 | 33 | 0.0 | 0.0 | 0.00 | 0.00 | 0.00 | ||
| 20260508142504 | 75 | 33 | 0.0 | 1.0 | 0.00 | 0.00 | 0.00 | ||
| 20260508142024 | 75 | 33 | 0.0 | 2.0 | 0.00 | 0.00 | 0.00 | ||
| 20260508141514 | 74 | 5 | 1.0 | 2.0 | 0.00 | 0.00 | 0.00 | ||
| 20260508141013 | 74 | 232 | 1.0 | 2.0 | 0.00 | 0.00 | 0.00 | ||
| 20260508140002 | 73 | 0 | 0.0 | 4.0 | 0.00 | 0.00 | 0.00 | ||
| 20260508135459 | 73 | 0 | 1.0 | 6.0 | 0.00 | 0.00 | 0.00 | ||
| 20260508134513 | 72 | 336 | 1.0 | 5.0 | 0.00 | 0.00 | 0.00 | ||
| 20260508134011 | 71 | 250 | 2.0 | 5.0 | 0.00 | 0.00 | 0.00 | ||
| 20260508133013 | 71 | 0 | 0.0 | 1.0 | 0.00 | 0.00 | 0.00 | ||
| 20260508132512 | 71 | 0 | 0.0 | 1.0 | 0.00 | 0.00 | 0.00 | ||
| 20260508132012 | 71 | 0 | 0.0 | 1.0 | 0.00 | 0.00 | 0.00 | ||
| 20260508131501 | 71 | 0 | 0.0 | 1.0 | 0.00 | 0.00 | 0.00 | ||
| 20260508131005 | 71 | 0 | 0.0 | 5.0 | 0.00 | 0.00 | 0.00 | ||
| 20260508130002 | 71 | 348 | 2.0 | 6.0 | 0.00 | 0.00 | 0.00 | ||
| 20260508125502 | 71 | 17 | 0.0 | 1.0 | 0.00 | 0.00 | 0.00 | ||
| 20260508125025 | 71 | 339 | 0.0 | 1.0 | 0.00 | 0.00 | 0.00 | ||
| 20260508124516 | 71 | 263 | 0.0 | 1.0 | 0.00 | 0.00 | 0.00 | ||
| 20260508124019 | 72 | 0 | 0.0 | 1.0 | 0.00 | 0.00 | 0.00 | ||
| 20260508123502 | 72 | 0 | 0.0 | 3.0 | 0.00 | 0.00 | 0.00 | ||
| 20260508123004 | 72 | 317 | 0.0 | 3.0 | 0.00 | 0.00 | 0.00 | ||
| 20260508122507 | 72 | 330 | 0.0 | 1.0 | 0.00 | 0.00 | 0.00 | ||
| 20260508122005 | 72 | 0 | 0.0 | 2.0 | 0.00 | 0.00 | 0.00 | ||
| 20260508121016 | 72 | 0 | 0.0 | 3.0 | 0.00 | 0.00 | 0.00 | ||
| 20260508120517 | 73 | 276 | 0.0 | 3.0 | 0.00 | 0.00 | 0.00 | ||
| 20260508120018 | 73 | 0 | 0.0 | 7.0 | 0.00 | 0.00 | 0.00 | ||
| 20260508115458 | 73 | 350 | 1.0 | 10.0 | 0.00 | 0.00 | 0.00 | ||
| 20260508115001 | 73 | 0 | 3.0 | 10.0 | 0.00 | 0.00 | 0.00 | ||
| 20260508114524 | 72 | 0 | 4.0 | 10.0 | 0.00 | 0.00 | 0.00 | ||
| 20260508113501 | 72 | 0 | 2.0 | 10.0 | 0.00 | 0.00 | 0.00 | ||
| 20260508113005 | 72 | 0 | 3.0 | 10.0 | 0.00 | 0.00 | 0.00 | ||
| 20260508112504 | 72 | 0 | 2.0 | 8.0 | 0.00 | 0.00 | 0.00 | ||
| 20260508112010 | 71 | 0 | 3.0 | 7.0 | 0.00 | 0.00 | 0.00 | ||
| 20260508111502 | 71 | 0 | 2.0 | 7.0 | 0.00 | 0.00 | 0.00 | ||
| 20260508111002 | 71 | 0 | 2.0 | 6.0 | 0.00 | 0.00 | 0.00 | ||
| 20260508110515 | 71 | 0 | 1.0 | 3.0 | 0.00 | 0.00 | 0.00 | ||
| 20260508110014 | 71 | 0 | 0.0 | 1.0 | 0.00 | 0.00 | 0.00 | ||
| 20260508105513 | 71 | 0 | 0.0 | 3.0 | 0.00 | 0.00 | 0.00 | ||
| 20260508104509 | 71 | 0 | 1.0 | 3.0 | 0.00 | 0.00 | 0.00 | ||
| 20260508103514 | 71 | 0 | 0.0 | 1.0 | 0.00 | 0.00 | 0.00 | ||
| 20260508103016 | 71 | 0 | 0.0 | 1.0 | 0.00 | 0.00 | 0.00 | ||
| 20260508102458 | 71 | 0 | 0.0 | 0.0 | 0.00 | 0.00 | 0.00 | ||
| 20260508102021 | 71 | 0 | 0.0 | 1.0 | 0.00 | 0.00 | 0.00 | ||
| 20260508101512 | 72 | 0 | 0.0 | 1.0 | 0.00 | 0.00 | 0.00 | ||
| 20260508101012 | 72 | 0 | 0.0 | 1.0 | 0.00 | 0.00 | 0.00 | ||
| 20260508100458 | 72 | 0 | 0.0 | 1.0 | 0.00 | 0.00 | 0.00 | ||
| 20260508100000 | 72 | 0 | 0.0 | 1.0 | 0.00 | 0.00 | 0.00 | ||
| 20260508095501 | 73 | 0 | 0.0 | 3.0 | 0.00 | 0.00 | 0.00 | ||
| 20260508095022 | 73 | 0 | 0.0 | 3.0 | 0.00 | 0.00 | 0.00 | ||
| 20260508094515 | 73 | 0 | 1.0 | 3.0 | 0.00 | 0.00 | 0.00 | ||
| 20260508094014 | 73 | 0 | 0.0 | 3.0 | 0.00 | 0.00 | 0.00 | ||
| 20260508093514 | 73 | 0 | 0.0 | 6.0 | 0.00 | 0.00 | 0.00 | ||
| 20260508093014 | 73 | 0 | 4.0 | 6.0 | 0.00 | 0.00 | 0.00 | ||
| 20260508092516 | 73 | 0 | 1.0 | 9.0 | 0.00 | 0.00 | 0.00 | ||
| 20260508091511 | 72 | 0 | 1.0 | 6.0 | 0.00 | 0.00 | 0.00 | ||
| 20260508091010 | 72 | 0 | 1.0 | 3.0 | 0.00 | 0.00 | 0.00 | ||
| 20260508090015 | 73 | 0 | 0.0 | 0.0 | 0.00 | 0.00 | 0.00 | ||
| 20260508085518 | 73 | 0 | 0.0 | 0.0 | 0.00 | 0.00 | 0.00 | ||
| 20260508085003 | 73 | 0 | 0.0 | 1.0 | 0.00 | 0.00 | 0.00 | ||
| 20260508084015 | 74 | 0 | 0.0 | 3.0 | 0.00 | 0.00 | 0.00 | ||
| 20260508083516 | 74 | 0 | 0.0 | 6.0 | 0.00 | 0.00 | 0.00 | ||
| 20260508083018 | 74 | 0 | 2.0 | 8.0 | 0.00 | 0.00 | 0.00 | ||
| 20260508082500 | 74 | 0 | 1.0 | 8.0 | 0.00 | 0.00 | 0.00 | ||
| 20260508081514 | 74 | 0 | 3.0 | 8.0 | 0.00 | 0.00 | 0.00 | ||
| 20260508081015 | 73 | 6 | 4.0 | 6.0 | 0.00 | 0.00 | 0.00 | ||
| 20260508075500 | 73 | 0 | 0.0 | 0.0 | 0.00 | 0.00 | 0.00 | ||
| 20260508074959 | 74 | 0 | 0.0 | 0.0 | 0.00 | 0.00 | 0.00 | ||
| 20260508074521 | 74 | 0 | 0.0 | 0.0 | 0.00 | 0.00 | 0.00 | ||
| 20260508074014 | 74 | 0 | 0.0 | 0.0 | 0.00 | 0.00 | 0.00 | ||
| 20260508073018 | 75 | 0 | 0.0 | 1.0 | 0.00 | 0.00 | 0.00 | ||
| 20260508072458 | 75 | 0 | 0.0 | 1.0 | 0.00 | 0.00 | 0.00 | ||
| 20260508072005 | 75 | 0 | 0.0 | 1.0 | 0.00 | 0.00 | 0.00 | ||
| 20260508071528 | 76 | 0 | 0.0 | 2.0 | 0.00 | 0.00 | 0.00 | ||
| 20260508071017 | 76 | 0 | 0.0 | 2.0 | 0.00 | 0.00 | 0.00 | ||
| 20260508070514 | 76 | 0 | 0.0 | 2.0 | 0.00 | 0.00 | 0.00 | ||
| 20260508070019 | 76 | 311 | 0.0 | 3.0 | 0.00 | 0.00 | 0.00 | ||
| 20260508065459 | 76 | 0 | 0.0 | 1.0 | 0.00 | 0.00 | 0.00 | ||
| 20260508065021 | 76 | 344 | 0.0 | 1.0 | 0.00 | 0.00 | 0.00 | ||
| 20260508063959 | 77 | 0 | 0.0 | 2.0 | 0.00 | 0.00 | 0.00 | ||
| 20260508063003 | 77 | 329 | 0.0 | 1.0 | 0.00 | 0.00 | 0.00 | ||
| 20260508062504 | 77 | 340 | 0.0 | 1.0 | 0.00 | 0.00 | 0.00 | ||
| 20260508062029 | 77 | 305 | 0.0 | 1.0 | 0.00 | 0.00 | 0.00 | ||
| 20260508061500 | 77 | 309 | 0.0 | 1.0 | 0.00 | 0.00 | 0.00 | ||
| 20260508061020 | 77 | 154 | 0.0 | 1.0 | 0.00 | 0.00 | 0.00 | ||
| 20260508060518 | 77 | 151 | 0.0 | 1.0 | 0.00 | 0.00 | 0.00 | ||
| 20260508060002 | 78 | 295 | 0.0 | 1.0 | 0.00 | 0.00 | 0.00 | ||
| 20260508055504 | 78 | 253 | 0.0 | 0.0 | 0.00 | 0.00 | 0.00 | ||
| 20260508055004 | 78 | 0 | 0.0 | 0.0 | 0.00 | 0.00 | 0.00 | ||
| 20260508054526 | 78 | 0 | 0.0 | 0.0 | 0.00 | 0.00 | 0.00 | ||
| 20260508053501 | 79 | 0 | 0.0 | 1.0 | 0.00 | 0.00 | 0.00 | ||
| 20260508053004 | 79 | 0 | 0.0 | 2.0 | 0.00 | 0.00 | 0.00 | ||
| 20260508052504 | 80 | 0 | 0.0 | 2.0 | 0.00 | 0.00 | 0.00 | ||
| 20260508052026 | 80 | 0 | 0.0 | 2.0 | 0.00 | 0.00 | 0.00 | ||
| 20260508051459 | 80 | 0 | 0.0 | 1.0 | 0.00 | 0.00 | 0.00 | ||
| 20260508051018 | 80 | 327 | 0.0 | 2.0 | 0.00 | 0.00 | 0.00 | ||
| 20260508050500 | 81 | 199 | 0.0 | 3.0 | 0.00 | 0.00 | 0.00 | ||
| 20260508045959 | 81 | 87 | 1.0 | 3.0 | 0.00 | 0.00 | 0.00 | ||
| 20260508045500 | 81 | 0 | 0.0 | 2.0 | 0.00 | 0.00 | 0.00 | ||
| 20260508045005 | 81 | 0 | 0.0 | 2.0 | 0.00 | 0.00 | 0.00 | ||
| 20260508044529 | 82 | 0 | 0.0 | 2.0 | 0.00 | 0.00 | 0.00 | ||
| 20260508044015 | 82 | 0 | 0.0 | 2.0 | 0.00 | 0.00 | 0.00 | ||
| 20260508043514 | 82 | 0 | 0.0 | 1.0 | 0.00 | 0.00 | 0.00 | ||
| 20260508043017 | 83 | 0 | 0.0 | 3.0 | 0.00 | 0.00 | 0.00 | ||
| 20260508042458 | 83 | 0 | 1.0 | 4.0 | 0.00 | 0.00 | 0.00 | ||
| 20260508042000 | 83 | 343 | 0.0 | 5.0 | 0.00 | 0.00 | 0.00 | ||
| 20260508041015 | 84 | 4 | 3.0 | 5.0 | 0.00 | 0.00 | 0.00 | ||
| 20260508040516 | 84 | 341 | 1.0 | 5.0 | 0.00 | 0.00 | 0.00 | ||
| 20260508035501 | 85 | 181 | 1.0 | 5.0 | 0.00 | 0.00 | 0.00 | ||
| 20260508034525 | 85 | 0 | 2.0 | 4.0 | 0.00 | 0.00 | 0.00 | ||
| 20260508033004 | 86 | 104 | 0.0 | 3.0 | 0.00 | 0.00 | 0.00 | ||
| 20260508032505 | 87 | 104 | 0.0 | 6.0 | 0.00 | 0.00 | 0.00 | ||
| 20260508032014 | 87 | 336 | 1.0 | 6.0 | 0.00 | 0.00 | 0.00 | ||
| 20260508031506 | 88 | 336 | 1.0 | 7.0 | 0.00 | 0.00 | 0.00 | ||
| 20260508031008 | 88 | 19 | 2.0 | 7.0 | 0.00 | 0.00 | 0.00 | ||
| 20260508030507 | 88 | 0 | 3.0 | 7.0 | 0.00 | 0.00 | 0.00 | ||
| 20260508030011 | 88 | 0 | 1.0 | 4.0 | 0.00 | 0.00 | 0.00 | ||
| 20260508025513 | 89 | 0 | 1.0 | 4.0 | 0.00 | 0.00 | 0.00 | ||
| 20260508025015 | 89 | 0 | 2.0 | 6.0 | 0.00 | 0.00 | 0.00 | ||
| 20260508024507 | 90 | 0 | 1.0 | 6.0 | 0.00 | 0.00 | 0.00 | ||
| 20260508024010 | 90 | 0 | 1.0 | 8.0 | 0.00 | 0.00 | 0.00 | ||
| 20260508023509 | 90 | 0 | 3.0 | 8.0 | 0.00 | 0.00 | 0.00 | ||
| 20260508023009 | 90 | 0 | 5.0 | 11.0 | 0.00 | 0.00 | 0.00 | ||
| 20260508022012 | 91 | 313 | 6.0 | 8.0 | 0.00 | 0.00 | 0.00 | ||
| 20260508021503 | 91 | 357 | 6.0 | 11.0 | 0.00 | 0.00 | 0.00 | ||
| 20260508021007 | 92 | 355 | 6.0 | 11.0 | 0.00 | 0.00 | 0.00 | ||
| 20260508020510 | 92 | 340 | 6.0 | 10.0 | 0.00 | 0.00 | 0.00 | ||
| 20260508015511 | 92 | 352 | 6.0 | 11.0 | 0.00 | 0.00 | 0.00 | ||
| 20260508015011 | 93 | 359 | 5.0 | 11.0 | 0.00 | 0.00 | 0.00 | ||
| 20260508014504 | 93 | 359 | 5.0 | 9.0 | 0.00 | 0.00 | 0.00 | ||
| 20260508014008 | 93 | 0 | 6.0 | 10.0 | 0.00 | 0.00 | 0.00 | ||
| 20260508013507 | 94 | 356 | 7.0 | 11.0 | 0.00 | 0.00 | 0.00 | ||
| 20260508013011 | 94 | 271 | 5.0 | 11.0 | 0.00 | 0.00 | 0.00 | ||
| 20260508012513 | 94 | 0 | 6.0 | 13.0 | 0.00 | 0.00 | 0.00 | ||
| 20260508012017 | 94 | 359 | 6.0 | 13.0 | 0.00 | 0.00 | 0.00 | ||
| 20260508011507 | 94 | 359 | 6.0 | 11.0 | 0.00 | 0.00 | 0.00 | ||
| 20260508011007 | 94 | 318 | 6.0 | 11.0 | 0.00 | 0.00 | 0.00 | ||
| 20260508010510 | 94 | 347 | 5.0 | 12.0 | 0.00 | 0.00 | 0.00 | ||
| 20260508005459 | 94 | 336 | 6.0 | 9.0 | 0.00 | 0.00 | 0.00 | ||
| 20260508004516 | 94 | 0 | 4.0 | 13.0 | 0.00 | 0.00 | 0.00 |